TimeEST,TemperatureF,Dew PointF,Humidity,Sea Level PressureIn,VisibilityMPH,Wind Direction,Wind SpeedMPH,Gust SpeedMPH,PrecipitationIn,Events,Conditions,WindDirDegrees,DateUTC
12:53 AM,36.0,25.0,64,30.37,10.0,West,3.5,-,N/A,,Clear,260,2013-02-18 05:53:00
1:53 AM,34.0,25.0,70,30.37,10.0,SW,5.8,-,N/A,,Clear,230,2013-02-18 06:53:00
2:53 AM,34.0,26.1,73,30.36,10.0,Calm,Calm,-,N/A,,Clear,0,2013-02-18 07:53:00
3:53 AM,33.1,25.0,72,30.35,10.0,WSW,3.5,-,N/A,,Clear,240,2013-02-18 08:53:00
4:53 AM,33.1,26.1,75,30.35,10.0,SW,3.5,-,N/A,,Clear,220,2013-02-18 09:53:00
5:53 AM,32.0,25.0,75,30.37,10.0,WSW,3.5,-,N/A,,Clear,240,2013-02-18 10:53:00
6:53 AM,32.0,26.1,79,30.39,10.0,Calm,Calm,-,N/A,,Clear,0,2013-02-18 11:53:00
7:53 AM,33.1,28.0,82,30.39,10.0,Calm,Calm,-,N/A,,Partly Cloudy,0,2013-02-18 12:53:00
8:53 AM,44.1,35.1,71,30.40,10.0,Calm,Calm,-,N/A,,Partly Cloudy,0,2013-02-18 13:53:00
9:53 AM,48.9,27.0,43,30.42,10.0,North,4.6,-,N/A,,Partly Cloudy,360,2013-02-18 14:53:00
10:53 AM,52.0,26.1,37,30.42,10.0,North,3.5,-,N/A,,Partly Cloudy,10,2013-02-18 15:53:00
11:53 AM,55.0,28.9,37,30.40,10.0,Variable,5.8,-,N/A,,Scattered Clouds,0,2013-02-18 16:53:00
12:53 PM,57.0,30.0,36,30.37,10.0,East,6.9,-,N/A,,Mostly Cloudy,100,2013-02-18 17:53:00
1:53 PM,57.9,32.0,37,30.35,10.0,SE,5.8,16.1,N/A,,Mostly Cloudy,130,2013-02-18 18:53:00
2:53 PM,60.1,34.0,38,30.32,10.0,SE,10.4,-,N/A,,Mostly Cloudy,130,2013-02-18 19:53:00
3:53 PM,61.0,37.0,41,30.32,10.0,East,11.5,-,N/A,,Mostly Cloudy,100,2013-02-18 20:53:00
4:53 PM,60.1,39.0,46,30.32,10.0,ESE,11.5,-,N/A,,Scattered Clouds,110,2013-02-18 21:53:00
5:53 PM,57.0,39.9,53,30.31,10.0,ESE,11.5,-,N/A,,Scattered Clouds,110,2013-02-18 22:53:00
6:53 PM,55.0,41.0,59,30.30,10.0,East,6.9,-,N/A,,Scattered Clouds,90,2013-02-18 23:53:00
7:53 PM,54.0,41.0,62,30.30,10.0,ENE,4.6,-,N/A,,Partly Cloudy,70,2013-02-19 00:53:00
8:53 PM,53.1,42.1,66,30.28,10.0,East,3.5,-,N/A,,Clear,80,2013-02-19 01:53:00
9:53 PM,54.0,44.1,69,30.27,10.0,East,3.5,-,N/A,,Partly Cloudy,80,2013-02-19 02:53:00
10:53 PM,53.1,45.0,74,30.26,10.0,East,3.5,-,N/A,,Clear,90,2013-02-19 03:53:00
11:53 PM,55.0,46.0,72,30.24,10.0,SSE,9.2,-,N/A,,Clear,150,2013-02-19 04:53:00